Regional Weather Roundup
Issued by NWS Columbia, SC

Home | Current Version | Previous Version | Text Only | Print | Product List | Glossary On
Versions: 1 2 3 4 5 6 7 8 9 10 11 12 13 14 15 16 17 18 19 20 21 22 23 24 25 26 27 28 29 30 31 32 33 34 35 36 37 38 39 40 41 42 43 44 45 46 47 48 49 50
000
ASUS42 KCAE 252010
RWRCAE
REGIONAL WEATHER ROUNDUP
NATIONAL WEATHER SERVICE COLUMBIA SC
400 PM EDT TUE JUL 25 2017

NOTE: "FAIR" INDICATES FEW OR NO CLOUDS BELOW 12,000 FEET WITH NO
SIGNIFICANT WEATHER AND/OR OBSTRUCTIONS TO VISIBILITY.

NOT ALL STATIONS ARE QUALITY CONTROLLED BY THE NATIONAL
WEATHER SERVICE. USE DATA WITH CAUTION...ESPECIALLY
DEWPOINT OBSERVATIONS.

SCZ001>056-GAZ040-063>065-077-252100-
...UPSTATE SOUTH CAROLINA...

CITY           SKY/WX    TMP DP  RH WIND       PRES   REMARKS
ANDERSON       PTSUNNY   92  64  39 SE3       30.07F
LIBERTY        PTCLDY    91  67  44 CALM      30.08F
SPARTANBURG    CLOUDY    90  64  43 E3        30.07S
CLEMSON        CLOUDY    91  64  40 CALM      30.09F
GREENVILLE     CLOUDY    92  66  42 SE8       30.09F
GREENWOOD      MOSUNNY   93  67  42 N5        30.07F HX  96
GREER          CLOUDY    89  70  53 SE7       30.07F
ROCK HILL      CLOUDY    90  69  50 VRB3      30.08S
CHESTER        CLOUDY    90  64  43 CALM      30.08S
LAURENS        CLOUDY    91  68  46 E3        30.07S HX  95


...CENTRAL SOUTH CAROLINA...

CITY           SKY/WX    TMP DP  RH WIND       PRES   REMARKS
COLUMBIA APT   PTSUNNY   95  71  45 SW5       30.02F HX 102
COLUMBIA OWENS MOSUNNY   94  70  45 SW6       30.03F HX 100
MCENTIRE ANGB  PTSUNNY   94  70  46 SE3       30.03F HX  99
ORANGEBURG     PTSUNNY   91  73  55 SE3       30.03F HX  99
SUMTER SHAW    MOSUNNY   92  73  53 SE5       30.01F HX 100
NEWBERRY       MOCLDY    91  72  52 CALM      30.08F HX  98
AIKEN          MOCLDY    88  72  58 S6        30.08F
BARNWELL       FAIR      95  75  52 CALM      30.03F HX 107
MANNING        FAIR      91  77  62 W5        30.03F HX 105
CAMDEN         CLOUDY    93  72  49 CALM      30.04F HX 100
LANCASTER      MOCLDY    91  72  52 CALM      30.06F HX  98
WINNSBORO      PTCLDY    91  70  49 S3        30.05F HX  97


...EASTERN AND COASTAL SOUTH CAROLINA...

CITY           SKY/WX    TMP DP  RH WIND       PRES   REMARKS
N MYRTLE BCH   SUNNY     86  76  71 S13       30.04S HX  96
CONWAY         MOCLDY    88  77  70 SE3       30.03F HX 100
MARION         FAIR      90  73  58 NE5       30.03F HX  98
HARTSVILLE     MOCLDY    90  72  55 CALM      30.04F HX  96
FLORENCE       MOSUNNY   92  74  55 VRB3      30.03F HX 101
DARLINGTON     MOSUNNY   92  75  57 VRB3      30.04F HX 103
CHARLESTON APT PTSUNNY   85  74  69 S9        30.03F THUNDER
MOUNT PLEASANT FAIR      84  79  84 S10       30.05R HX  96
BEAUFORT       MOSUNNY   92  79  65 SE3       30.04F HX 108


...EASTERN GEORGIA...

CITY           SKY/WX    TMP DP  RH WIND       PRES   REMARKS
AUGUSTA BUSH F MOSUNNY   92  75  57 E3        30.03F HX 103
AUGUSTA DANIEL MOSUNNY   92  71  50 CALM      30.05F HX  98
THOMSON        CLOUDY    89  74  61 NW6       30.11F HX  98
CLAXTON        CLOUDY    85  76  74 NE9G21    30.05R THUNDER
SYLVANIA       HAZE      87  77  72 NW9       30.05S THUNDER VSB 1
STATESBORO     CLOUDY    86  77  75 S9        30.05S HX  97
SAVANNAH       CLOUDY    84  76  76 SW7       30.05S THUNDER


...SOUTHERN NORTH CAROLINA...

CITY           SKY/WX    TMP DP  RH WIND       PRES   REMARKS
CHARLOTTE      CLOUDY    93  63  36 N7        30.07F
MONROE         PTSUNNY   88  69  53 NE3       30.07F
ROCKINGHAM     PTCLDY    91  71  52 NE5       30.05F HX  97
RUTHERFORDTON  MOSUNNY   90  63  40 SW8       30.10S
ASHEVILLE      MOSUNNY   89  65  44 NW12      30.15F

$$



USA.gov is the U.S. government's official web portal to all federal, state and local government web resources and services.